Aérodrome :
LOGIN :

S'inscrire | Disclaimer

   EN    FR    IT 

 










Légende :    VFR   VFR Marginal   IFR   IFR Intensif   IFR Très Intensif
Visi : 
Plafond : 
>= 8 km
>= 3000ft
5 à 8 km
1000 à 3000 ft
1500m à 5 km
500 à 1000 ft
800 à 1500m
200 à 500 ft
< 800m
< 200 ft
Symboles :   Orages  Brouillard  Fortes neiges  Fortes précipitations  Vent > 20 kt
SIGMETs :   Divers  Orages  Givrage  Turbulence  Onde Orograph.  Cendres Volcan.







- Altitude de l'aérodrome : 24 ft
- Code IATA : IBZ


LEIB - Ibiza

DERNIER METAR :
  • 181530Z 19007KT 140V220 CAVOK 26/14 Q1014 NOSIG

METARs EXPIRÉS :
  • 181500Z 18007KT 120V220 CAVOK 26/16 Q1015 NOSIG
  • 181430Z 18009KT 140V230 CAVOK 27/16 Q1015 NOSIG
  • 181400Z 15007KT 100V210 CAVOK 27/16 Q1015 NOSIG
  • 181330Z 13007KT 080V170 CAVOK 26/16 Q1015 NOSIG
  • 181300Z 10008KT 060V160 CAVOK 25/16 Q1016 NOSIG

TAF TAF LEIB
Valide du 18 à 15h jusqu'au 19 à 15h UTC


181400Z 1815/1915 13008KT 9999 FEW020 TX26/1912Z TN18/1905Z
BECMG 1821/1823 22008KT
PROB30
TEMPO 1823/1906 3000 BR BKN009
Pas de NOTAMs connus pour ce terrain.



MET'MAP, la Météo Aéronautique d'un coup d'oeil ! - Copyright ORBIFLY Décembre 2007 - Disclaimer

ORBIFLY MET'MAP TEAM :

Programmation & Développement : Alexandra Zaïnal
Conception & Développement : Baudouin d'Aumeries
Co-Programmation & Développement : Marc-Olivier Méhu
Soutien technique & logistique : Manuel Goepfert

Contact : metmap@orbifly.com




SOURCES & CREDITS :

   NOAA